Weather Roundup
Issued by NWS Springfield, MO

Home | Current Version | Previous Version | Text Only | Print | Product List | Glossary On
Versions: 1 2 3 4 5 6 7 8 9 10 11 12 13 14 15 16 17 18 19 20 21 22 23 24 25 26 27 28 29 30 31 32 33 34 35 36 37 38 39 40 41 42 43 44 45 46 47 48 49 50
000
NZUS99 KSGF 240857
HRRSGF

HOURLY WEATHER
NATIONAL WEATHER SERVICE SPRINGFIELD MO
400 AM CDT TUE OCT 24 2017

......SGF CWA......

CITY           SKY/WX    TMP DP  RH WIND       PRES   REMARKS
SPRINGFIELD    PTCLDY    48  34  58 W15G22    30.03F
WEST PLAINS    CLEAR     48  30  49 W8        29.99F
ROLLA          PTCLDY    48  32  53 W17       29.91F

......SURROUNDING SGF CWA......

CITY           SKY/WX    TMP DP  RH WIND       PRES   REMARKS
CHANUTE        CLEAR     52  32  46 NW20G26   30.12F
PARSONS        CLEAR     50  33  52 W12       30.14F
COFFEYVILLE    CLEAR     51  32  48 W13       30.15F
EMPORIA        CLEAR     49  30  48 NW15G24   30.13F
HARRISON AR    CLEAR     49  33  54 NW8       30.06F

......KANSAS AND MISSOURI......

CITY           SKY/WX    TMP DP  RH WIND       PRES   REMARKS
KANSAS CTY INT CLEAR     49  34  56 NW14G21   29.99F
SEDALIA        CLOUDY    50  37  61 W14G22    29.95F
ST JOSEPH      LGT RAIN  50  35  56 NW20G31   29.99F
ST LOUIS       CLOUDY    53  34  48 W22G32    29.80F
WICHITA        CLEAR     49  27  42 NW20      30.23S
TOPEKA         CLEAR     50  33  52 W13       30.06F
OLATHE         CLEAR     48  34  58 NW13G22   30.02F

......TENNESSEE......

CITY           SKY/WX    TMP DP  RH WIND       PRES   REMARKS
MEMPHIS        NOT AVBL
NASHVILLE      PTCLDY    53  45  74 SW3       29.86S

......ARKANSAS.......

CITY           SKY/WX    TMP DP  RH WIND       PRES   REMARKS
FAYETTEVILLE   CLEAR     49  34  56 W7        30.13S
FT SMITH       CLEAR     50  37  61 W10       30.15F
LITTLE ROCK    CLEAR     58  35  42 NW16G24   30.07S

......OKLAHOMA.......

CITY           SKY/WX    TMP DP  RH WIND       PRES   REMARKS
TULSA          CLEAR     50  34  54 W10       30.19F
PONCA CITY     CLEAR     49  32  52 W7        30.24F
MCALESTER      CLEAR     50  37  61 W6        30.24S
OKLAHOMA CITY  PTCLDY    47  33  58 NW8       30.30S

......IOWA............

CITY           SKY/WX    TMP DP  RH WIND       PRES   REMARKS
DES MOINES     NOT AVBL
QUAD CITIES    CLOUDY    49  33  54 NW15      29.66F

......ILLINOIS........

CITY           SKY/WX    TMP DP  RH WIND       PRES   REMARKS
QUINCY         CLOUDY    51  34  52 W20G30    29.76F
CHICAGO        LGT RAIN  48  45  89 W9        29.52F




USA.gov is the U.S. government's official web portal to all federal, state and local government web resources and services.